Regional Weather Roundup
Issued by NWS

Home | Current Version | Previous Version | Graphics & Text | Print | Product List | Glossary On
Versions: 1 2 3 4 5 6 7 8 9 10 11 12 13 14 15 16 17 18 19 20 21 22 23 24 25 26 27 28 29 30 31 32 33 34 35 36 37 38 39 40 41 42 43 44 45 46 47 48 49 50
792
ASUS45 KTFX 210810
RWRMT
MONTANA REGIONAL WEATHER ROUNDUP
NATIONAL WEATHER SERVICE GREAT FALLS MT
200 AM MDT SAT OCT 21 2017

NOTE: "FAIR" INDICATES FEW OR NO CLOUDS BELOW 12000 FEET WITH NO
SIGNIFICANT WEATHER AND/OR OBSTRUCTIONS TO VISIBILITY.

MTZ001>007-043-210900-
WEST OF THE DIVIDE

CITY           SKY/WX    TMP DP  RH WIND       PRES   REMARKS
KALISPELL      LGT RAIN  40  37  89 S6        29.83R
MISSOULA       CLOUDY    40  34  79 E6        29.89R
BUTTE          CLOUDY    32  26  78 CALM      29.87R
MULLAN PASS    SNOW      28  26  92 VRB3      29.83R VSB 1/4
ANACONDA         N/A     34  25  69 SE3       29.88R
DEER LODGE       N/A     37  25  60 CALM      29.88R
EUREKA           N/A     37  36  93 MISG      29.84R
HAMILTON         N/A     36  34  93 S3        29.91R
LIBBY            N/A     39  39 100 W3        29.83R
$$

MTZ008-052>055-210900-
SOUTHWEST MONTANA

CITY           SKY/WX    TMP DP  RH WIND       PRES   REMARKS
BOZEMAN        CLOUDY    32  25  75 E7        29.87R WCI  26
DILLON         CLOUDY    34  21  59 SW9       29.89R WCI  27
W YELLOWSTONE  CLEAR     23  19  86 SW3       29.90R
ENNIS          CLOUDY    34  21  60 SE12      29.93R WCI  25
THREE FORKS      N/A     41  20  43 W8        29.87R
$$

MTZ009-010-012-014-046-048-049-054-210900-
EAST SLOPES AND CENTRAL MONTANA

CITY           SKY/WX    TMP DP  RH WIND       PRES   REMARKS
CUT BANK       MOCLDY    38  28  67 W20       29.67R WCI  28
GREAT FALLS    CLEAR     36  24  62 SW14      29.71R WCI  27
MALMSTROM AFB  CLEAR     39  27  62 SW14      29.72  WCI  31
HELENA         CLEAR     42  24  49 W12G22    29.82R
CHOTEAU          N/A     43  21  42 W21G30    29.69R
FAIRFIELD        N/A    N/A N/A N/A MISG        N/A
POWER            N/A    N/A N/A N/A MISG        N/A
RAYNESFORD       N/A    N/A N/A N/A MISG        N/A
ULM              N/A    N/A N/A N/A MISG        N/A
$$

MTZ011-013-016-021-045-047-050-051-210900-
NORTH CENTRAL MONTANA

CITY           SKY/WX    TMP DP  RH WIND       PRES   REMARKS
HAVRE          LGT RAIN  43  39  86 W15       29.61R
LEWISTOWN      CLOUDY    42  23  46 W25G37    29.67R
N BAR RANCH    CLOUDY    41  19  42 W26G35    29.67R
CHINOOK          N/A     43  41  93 W17       29.58R
GEYSER           N/A    N/A N/A N/A W23         N/A
GRASS RANGE      N/A     43  25  48 MISG      29.60R
JUDITH GAP       N/A    N/A N/A N/A MISG        N/A
WINIFRED         N/A    N/A N/A N/A MISG        N/A
$$

MTZ017>020-022>027-061-062-210900-
NORTHEAST MONTANA

CITY           SKY/WX    TMP DP  RH WIND       PRES   REMARKS
GLASGOW        CLOUDY    45  38  76 W20G31    29.46R
JORDAN           N/A     47  33  58 W21G33    29.57R
SIDNEY         CLEAR     48  37  65 W21G32    29.42R
WOLF POINT     CLOUDY    47  38  71 W21G30    29.43R
MALTA          CLOUDY    45  39  81 W28G36    29.52R
PLENTYWOOD       N/A     54  34  47 W14G21    29.34R
POPLAR           N/A     46  37  71 W15       29.43R
$$

MTZ028>42-056>058-210900-
SOUTHCENTRAL AND SOUTHEAST MONTANA

CITY           SKY/WX    TMP DP  RH WIND       PRES   REMARKS
BAKER          MOCLDY    46  37  71 W23G35    29.53R
BILLINGS       MOCLDY    45  25  45 W24G33    29.71R
LIVINGSTON     CLOUDY    39  21  48 W14       29.81R WCI  31
MILES CITY     CLOUDY    45  35  68 W14G22    29.59R
BIG TIMBER     CLEAR     39  21  48 W20G31    29.79R WCI  30
FORSYTH          N/A     46  28  49 W13G18    29.60R
HARLOWTON        N/A    N/A N/A N/A MISG        N/A
LAUREL           N/A     45  21  39 W24G37    29.73R
$$

REGIONAL REPORTS...DAKOTAS

CITY           SKY/WX    TMP DP  RH WIND       PRES   REMARKS
WILLISTON        N/A    N/A N/A N/A MISG      29.35R
MINOT          CLEAR     58  33  39 W20G36    29.23R
DICKINSON      CLEAR     52  36  54 W23G31    29.40R
BEACH            N/A     45  37  76 W16       29.51R
CROSBY           N/A     54  32  43 NW18      29.29R
TIOGA            N/A     54  32  43 W22G32    29.31R
WATFORD CITY     N/A     52  37  58 W20G28    29.37R
BISMARCK       CLEAR     61  34  36 W14       29.34R
GRAND FORKS    CLOUDY    67  58  72 S20G30    29.33F
FARGO          CLOUDY    68  58  70 S21G33    29.39S
BUFFALO SD       N/A     48  35  60 W33G47    29.47R
RAPID CITY     CLOUDY    53  41  63 N20       29.51F
$$

REGIONAL REPORTS...WYOMING/IDAHO/WASHINGTON

CITY           SKY/WX    TMP DP  RH WIND       PRES   REMARKS
GILLETTE       CLOUDY    43  24  47 NW17G26   29.69R
SHERIDAN       CLOUDY    43  19  38 NW8       29.70R
BUFFALO WY     CLOUDY    41  16  36 NW12G20   29.69R
CODY           CLEAR     41  18  39 SW16G26   29.75R
YELLOWSTONE LA   N/A     24  19  81 W5        29.89R
IDAHO FALLS    CLEAR     33  28  81 SW14      29.97R WCI  23
SALMON         CLOUDY    39  30  70 SW9       29.94R
BOISE          CLEAR     38  31  76 CALM      30.06R
SPOKANE        PTCLDY    37  34  89 SW15      29.89R WCI  28
$$

REGIONAL REPORTS...ALBERTA

CITY           SKY/WX    TMP DP  RH WIND       PRES   REMARKS
EDMONTON       CLEAR     32  28  86 W8        29.55R WCI  25
CALGARY        PTCLDY    36  28  75 SW2       29.61S
LETHBRIDGE     MOCLDY    37  36  93 W12       29.65R WCI  30
MEDICINE HAT   LGT RAIN  41  39  93 W15G23    29.57R
$$

REGIONAL REPORTS...SASKATCHEWAN

CITY           SKY/WX    TMP DP  RH WIND       PRES   REMARKS
SWIFT CURRENT  CLOUDY    43  37  81 NW20G25   29.37R
REGINA         CLOUDY    45  36  70 NW20G26   29.26F
SASKATOON      MOCLDY    43  36  75 W13       29.31F
$$




USA.gov is the U.S. government's official web portal to all federal, state and local government web resources and services.